Regional Weather Roundup
Issued by NWS Green Bay, WI

Home | Current Version | Previous Version | Text Only | Print | Product List | Glossary On
Versions: 1 2 3 4 5 6 7 8 9 10 11 12 13 14 15 16 17 18 19 20 21 22 23 24 25 26 27 28 29 30 31 32 33 34 35 36 37 38 39 40 41 42 43 44 45 46 47 48 49 50
000
ASUS43 KGRB 221111
RWRGRB

NORTH-CENTRAL AND NORTHEAST WISCONSIN REGIONAL WEATHER ROUNDUP
NATIONAL WEATHER SERVICE GREEN BAY WI
500 AM CST SUN JAN 22 2017

WIZ005-009-010>012-018-019-221200-
NORTH CENTRAL WISCONSIN

CITY           SKY/WX    TMP DP  RH WIND       PRES   REMARKS
IRONWOOD       FOG       34  33  96 W5        29.56S VSB 1/4
MANITOWISH WTR FOG       33  33 100 CALM      29.53S VSB 1/2
ARBOR VITAE    FOG       36  35  97 CALM      29.53S VSB 1/2
EAGLE RIVER    FOG       33  33 100 CALM      29.52F VSB 1/2
LAND O LAKES   FOG       34  34 100 CALM      29.54S VSB 3/4
RHINELANDER    FOG       34  34 100 CALM      29.54R VSB 1/4
PHILLIPS       FOG       33  33 100 CALM      29.54R VSB 3/4
ANTIGO         FOG       33  33 100 CALM      29.54R VSB 1/2
TOMAHAWK       FOG       33  32  96 CALM      29.55S VSB 3/4
MERRILL        FOG       33  33 100 CALM        N/A  VSB 1/2
$$

WIZ013-073-221200-
NORTHEAST WISCONSIN

CITY           SKY/WX    TMP DP  RH WIND       PRES   REMARKS
IRON MOUNTAIN  CLOUDY    34  31  88 CALM      29.53S
MARINETTE      NOT AVBL
OCONTO         CLOUDY    33  32  99 CALM      29.56S VSB 1/4
$$

WIZ017-030-035>037-045-221200-
CENTRAL WISCONSIN

CITY           SKY/WX    TMP DP  RH WIND       PRES   REMARKS
MEDFORD        FOG       33  33 100 CALM      29.54S VSB 1/2
WAUSAU         LGT RAIN  35  35 100 NW5       29.54R VSB 1/2
MOSINEE        LGT RAIN  34  34 100 NW3       29.56R VSB 1/2
MARSHFIELD     FOG       35  35 100 W3        29.54R VSB 1/4
WISC RAPIDS    FOG       37  37 100 W3        29.57R VSB 1/2
STEVENS POINT  FOG       35  35 100 CALM      29.56S VSB 1/2
WAUPACA        FOG       38  37  98 CALM      29.56S VSB 1/2
SHAWANO        FOG       35  34  96 CALM      29.56S VSB 1/4
CLINTONVILLE   FOG       34  34 100 CALM      29.56S VSB 1/4
WAUTOMA        FOG       36  36 100 W3        29.57S VSB 3/4
$$

WIZ038-039-048-051-221200-
FOX VALLEY

CITY           SKY/WX    TMP DP  RH WIND       PRES   REMARKS
NWS GREEN BAY  FOG       37  37 100 S5        29.56S VSB 1/4
APPLETON       NOT AVBL
OSHKOSH        FOG       36  35  96 CALM      29.56S VSB 1/2
FOND DU LAC    FOG       38  36  92 SW5       29.56S VSB 1/4
$$

WIZ022-050-052-221200-
EAST CENTRAL WISCONSIN

CITY           SKY/WX    TMP DP  RH WIND       PRES   REMARKS
EPHRAIM        FOG       36  36 100 CALM      29.56S VSB 1/4
WASHINGTON ISL FOG       33  33 100 CALM      29.56S VSB 1/2
STURGEON BAY   FOG       37  37 100 CALM      29.57S VSB 1/4
MANITOWOC      FOG       37  36  96 W3        29.58R VSB 1/2
SHEBOYGAN      FOG       37  36  96 CALM      29.57S VSB 3/4
$$

LMZ563-521-522-541>543-221200-
LAKESHORE

STATION/POSITION TIME  TEMP    WIND        PRES    VSBY  WAVE
                       AIR SEA DIR/SP/G                  HT/PER
                 (UTC) (F)     (DEG/KT/KT) (MB)    (MI)  (FT/S)
SHEBOYGAN LKSHOR 1100   41     330/  3/  3 1001.6S
KEWAUNEE LKSHORE 1048   37        CALM     1001.0S
NORTHPORT PIER   1040   36        CALM     1001.7R
SISTER BAY LKSHO 1035   36        CALM       N/A
MENOMINEE LKSHOR 1048           CALM  /  2 1000.6R
$$



USA.gov is the U.S. government's official web portal to all federal, state and local government web resources and services.